TimeEST,TemperatureF,Dew PointF,Humidity,Sea Level PressureIn,VisibilityMPH,Wind Direction,Wind SpeedMPH,Gust SpeedMPH,PrecipitationIn,Events,Conditions,WindDirDegrees,DateUTC
12:55 AM,23.4,16.3,75,30.16,10.0,WNW,3.5,-,N/A,,Clear,290,2013-02-16 05:55:00
1:55 AM,20.8,15.8,81,30.15,10.0,Calm,Calm,-,N/A,,Clear,0,2013-02-16 06:55:00
2:55 AM,16.7,14.4,91,30.14,10.0,SW,3.5,-,N/A,,Clear,220,2013-02-16 07:55:00
3:28 AM,17.6,14.0,86,30.13,9.0,Calm,Calm,-,N/A,Fog,Patches of Fog,0,2013-02-16 08:28:00
3:55 AM,17.6,14.9,89,30.12,7.0,Calm,Calm,-,N/A,Fog,Patches of Fog,0,2013-02-16 08:55:00
4:55 AM,17.1,14.2,88,30.11,7.0,Calm,Calm,-,N/A,Fog,Patches of Fog,0,2013-02-16 09:55:00
5:55 AM,14.5,11.7,88,30.10,7.0,Calm,Calm,-,N/A,,Partly Cloudy,0,2013-02-16 10:55:00
6:55 AM,15.6,12.7,88,30.10,6.0,South,3.5,-,N/A,,Partly Cloudy,170,2013-02-16 11:55:00
7:55 AM,16.7,14.0,89,30.09,7.0,Calm,Calm,-,N/A,,Scattered Clouds,0,2013-02-16 12:55:00
8:55 AM,21.2,19.0,91,30.10,10.0,SSW,6.9,-,N/A,,Mostly Cloudy,210,2013-02-16 13:55:00
9:55 AM,24.1,19.2,82,30.09,10.0,WSW,6.9,-,N/A,,Mostly Cloudy,240,2013-02-16 14:55:00
10:32 AM,24.8,19.4,80,30.09,10.0,WSW,6.9,-,N/A,,Overcast,250,2013-02-16 15:32:00
10:55 AM,26.1,19.4,76,30.09,10.0,WNW,8.1,-,N/A,Snow,Light Snow,300,2013-02-16 15:55:00
11:16 AM,26.6,19.4,74,30.08,10.0,SW,6.9,-,N/A,,Overcast,230,2013-02-16 16:16:00
11:30 AM,26.6,19.4,74,30.08,4.0,WSW,8.1,-,N/A,,Overcast,250,2013-02-16 16:30:00
11:41 AM,26.6,19.4,74,30.09,2.0,WSW,11.5,-,N/A,Snow,Light Snow,250,2013-02-16 16:41:00
11:53 AM,26.6,17.6,69,30.08,3.0,WSW,9.2,-,N/A,Snow,Light Snow,250,2013-02-16 16:53:00
11:55 AM,26.4,18.3,71,30.08,3.0,WSW,9.2,-,0.00,Snow,Light Snow,250,2013-02-16 16:55:00
12:07 PM,26.6,17.6,69,30.08,5.0,West,10.4,-,N/A,Snow,Light Snow,260,2013-02-16 17:07:00
12:11 PM,26.6,17.6,69,30.08,3.0,West,11.5,-,N/A,Snow,Light Snow,260,2013-02-16 17:11:00
12:27 PM,26.6,15.8,64,30.07,7.0,WSW,13.8,19.6,N/A,Snow,Light Snow,250,2013-02-16 17:27:00
12:44 PM,26.6,14.0,59,30.06,10.0,West,11.5,-,N/A,Snow,Light Snow,260,2013-02-16 17:44:00
12:55 PM,27.0,14.4,59,30.06,5.0,WSW,13.8,18.4,0.00,Snow,Light Snow,250,2013-02-16 17:55:00
1:06 PM,26.6,15.8,64,30.06,3.0,WNW,11.5,-,N/A,Snow,Light Snow,290,2013-02-16 18:06:00
1:26 PM,26.6,15.8,64,30.06,10.0,West,10.4,-,N/A,Snow,Light Snow,280,2013-02-16 18:26:00
1:54 PM,26.6,15.8,64,30.05,10.0,WSW,15.0,-,N/A,,Mostly Cloudy,250,2013-02-16 18:54:00
1:55 PM,26.8,15.3,62,30.05,10.0,WSW,15.0,-,0.00,,Mostly Cloudy,250,2013-02-16 18:55:00
2:16 PM,26.6,14.0,59,30.06,10.0,West,15.0,23.0,N/A,Snow,Light Snow,260,2013-02-16 19:16:00
2:55 PM,25.3,14.2,63,30.06,10.0,West,12.7,-,0.00,,Overcast,270,2013-02-16 19:55:00
3:00 PM,24.8,14.0,64,30.06,10.0,West,12.7,-,N/A,Snow,Light Snow,260,2013-02-16 20:00:00
3:39 PM,24.8,10.4,54,30.06,10.0,West,12.7,-,N/A,Snow,Light Snow,280,2013-02-16 20:39:00
3:55 PM,24.4,12.9,62,30.07,5.0,West,12.7,-,0.00,Snow,Light Snow,280,2013-02-16 20:55:00
4:20 PM,23.0,14.0,68,30.08,10.0,West,13.8,-,N/A,,Mostly Cloudy,260,2013-02-16 21:20:00
4:39 PM,23.0,12.2,63,30.08,10.0,West,10.4,-,N/A,,Overcast,280,2013-02-16 21:39:00
4:55 PM,23.5,9.7,56,30.09,10.0,West,12.7,-,0.00,,Overcast,270,2013-02-16 21:55:00
5:00 PM,23.0,10.4,59,30.09,10.0,West,13.8,-,N/A,,Overcast,270,2013-02-16 22:00:00
5:37 PM,23.0,10.4,59,30.10,10.0,West,11.5,-,N/A,,Mostly Cloudy,280,2013-02-16 22:37:00
5:49 PM,23.0,10.4,59,30.10,10.0,West,18.4,-,N/A,Snow,Light Snow,280,2013-02-16 22:49:00
5:55 PM,22.1,9.9,59,30.10,10.0,West,13.8,-,0.00,Snow,Light Snow,280,2013-02-16 22:55:00
6:30 PM,21.2,8.6,58,30.11,10.0,West,13.8,-,N/A,,Mostly Cloudy,280,2013-02-16 23:30:00
6:55 PM,21.4,9.9,61,30.12,10.0,West,10.4,-,0.00,,Mostly Cloudy,280,2013-02-16 23:55:00
7:14 PM,21.2,12.2,68,30.12,10.0,WNW,10.4,-,N/A,Snow,Light Snow,300,2013-02-17 00:14:00
7:55 PM,20.5,9.0,61,30.12,10.0,WNW,10.4,-,0.00,,Overcast,290,2013-02-17 00:55:00
8:17 PM,21.2,6.8,54,30.13,10.0,West,12.7,-,N/A,,Overcast,280,2013-02-17 01:17:00
8:55 PM,19.8,5.4,54,30.13,10.0,NW,16.1,21.9,N/A,,Overcast,310,2013-02-17 01:55:00
9:55 PM,19.2,5.4,55,30.14,10.0,NW,10.4,-,N/A,,Overcast,310,2013-02-17 02:55:00
10:55 PM,18.5,5.0,56,30.14,10.0,NW,10.4,-,N/A,,Overcast,310,2013-02-17 03:55:00
11:55 PM,17.2,5.9,61,30.14,10.0,West,4.6,-,N/A,,Mostly Cloudy,280,2013-02-17 04:55:00